Retour au catalogue

STARLINK-34497

ActifCommunicationsVLEO
NORAD 64696·PAYLOAD·🇺🇸 United States

Lancé Jun 28, 2025 depuis Vandenberg Space Force Base

Loading…

Prochains Passages (prochaines 24 heures)

TLE

FraisSource: CelesTrak SupGP

Époque: Sep 15, 2026, 02:45 UTC

1 64696C 25142A   26258.11506944 -.00019403  00000+0 -67509-3 0  2584
2 64696  70.0014 195.4080 0003194 272.7639 355.0153 15.29583700    18

Suivez STARLINK-34497 en temps réel avec AllMySat

Download on the App Store